Miscellaneous Local Product
Issued by NWS Hastings, NE

Home | Current Version | Previous Version | Text Only | Print | Product List | Glossary Off
Versions: 1 2 3 4 5 6 7 8 9 10 11 12 13 14 15 16 17 18 19 20 21 22 23 24 25 26 27 28 29 30 31 32 33 34 35 36 37 38 39 40 41 42 43 44 45 46 47 48 49 50

000
AXUS43 KGID 122002
MISGRI

GID CWA HOURLY WEATHER ROUNDUP
NATIONAL WEATHER SERVICE HASTINGS NE
200 PM CST TUE DEC 12 2017

NOTE: "FAIR" INDICATES FEW OR NO CLOUDS BELOW 12,000 FEET WITH NO
SIGNIFICANT WEATHER AND/OR OBSTRUCTIONS TO VISIBILITY.

...SOUTH CENTRAL NEBRASKA...

CITY           SKY/WX    TMP DP  RH WIND       PRES   REMARKS
GRAND ISLAND   SUNNY     49  25  39 W10       30.13F
KEARNEY        SUNNY     50  18  28 W8        30.13F
HASTINGS       SUNNY     49  21  33 W10G21    30.13F
ORD            SUNNY     49  22  34 W7        30.09F
YORK           SUNNY     46  27  46 W10       30.13F
AURORA         SUNNY     48  25  40 W10       30.12F
LEXINGTON      SUNNY     51  18  26 W7        30.13F
HOLDREGE       SUNNY     48  25  40 W9        30.13F
HEBRON         SUNNY     48  27  44 W12       30.16F

...NEBRASKA PANHANDLE...

CITY           SKY/WX    TMP DP  RH WIND       PRES   REMARKS
CHADRON        SUNNY     60  21  22 W10       30.07F
ALLIANCE       SUNNY     64  17  16 NW16      30.10F
SCOTTSBLUFF    SUNNY     64  16  15 W16       30.14F
SIDNEY         SUNNY     66  16  14 NW16      30.15F

...WESTERN AND NORTH CENTRAL NEBRASKA...

CITY           SKY/WX    TMP DP  RH WIND       PRES   REMARKS
VALENTINE      SUNNY     57  23  26 W15       30.03F
AINSWORTH      SUNNY     54  18  24 W8        30.04F
ONEILL         SUNNY     48  26  42 W13       30.05F
BROKEN BOW     SUNNY     52  18  26 SW6       30.09F
IMPERIAL       SUNNY     63  17  17 NW10      30.15F
NORTH PLATTE   SUNNY     54  22  28 W8        30.12F
MCCOOK         SUNNY     53  22  29 W8        30.15F

...EASTERN NEBRASKA...

CITY           SKY/WX    TMP DP  RH WIND       PRES   REMARKS
NORFOLK        SUNNY     45  27  49 W13       30.06F
SO SIOUX CITY  CLOUDY    40  27  59 S8        30.10F WCI  34
TEKAMAH        SUNNY     40  25  55 SW10      30.13F WCI  33
ALBION         SUNNY     48  27  44 W8        30.09F
OMAHA EPPLEY   PTSUNNY   38  23  55 S10       30.14F WCI  31
OFFUTT AFB     CLOUDY    39  23  53 SW7       30.14F WCI  34
MILLARD        CLOUDY    40  27  59 SW5       30.15F
LINCOLN        SUNNY     47  27  45 W12G18    30.15F
NEBRASKA CITY  CLOUDY    39  27  60 SW12      30.17F WCI  32
BEATRICE       SUNNY     47  29  50 W13       30.15F
FALLS CITY     PTSUNNY   39  21  48 W8        30.19F WCI  33

...NORTHERN KANSAS...

CITY           SKY/WX    TMP DP  RH WIND       PRES   REMARKS
GOODLAND       SUNNY     63  17  17 NW12      30.17F
HILL CITY      SUNNY     58  20  22 W10       30.16F
NORTON         CLEAR     55  10  16 W7        30.14F
PHILLIPSBURG   SUNNY     55  19  24 W7        30.16F
SMITH CENTER   MOSUNNY   50  25  37 SW9       30.17F
HAYS           SUNNY     56  21  25 W7        30.18F
RUSSELL        SUNNY     52  26  36 SW7       30.18F
CONCORDIA      SUNNY     47  27  45 W12       30.17F
SALINA         SUNNY     52  27  38 W10       30.21F
TOPEKA         PTSUNNY   43  25  49 VRB7      30.24F



USA.gov is the U.S. government's official web portal to all federal, state and local government web resources and services.